Curtis, Michigan, United States (49820)
Lat: 46.21N, Lon: 85.75W
Wx Zone: MIZ015
Local Info
Past Weather Observations for Today

NOTE: This archive is for the closest National Weather Service station to Curtis. Information may differ from the station used for current weather conditions.

Click here for Long-term Archive

Time Weather Temperature Dewpoint Humidity Pressure Winds Precip Visibility
20:15
Overcast
57°F / 14°C 54°F / 12°C 88% 29.95 in
(1014 mb)
NW 18.4 mph
(NW 30 kph)
- 10SM
19:54
Overcast
59°F / 15°C 55°F / 13°C 88% 29.95 in
(1014 mb)
NW 16.1 mph
(NW 26 kph)
- 10SM
19:34
Overcast
61°F / 16°C 55°F / 13°C 83% 29.92 in
(1013 mb)
WNW 17.3 mph
(WNW 28 kph)
- 10SM
19:15
Overcast
63°F / 17°C 55°F / 13°C 77% 29.92 in
(1013 mb)
Calm - 10SM
18:54
Overcast
64°F / 18°C 55°F / 13°C 73% 29.92 in
(1013 mb)
Calm - 10SM
18:35
Overcast
64°F / 18°C 55°F / 13°C 73% 29.92 in
(1013 mb)
W 26.5 mph
(W 43 kph)
- 10SM
18:15
Partly Cloudy
68°F / 20°C 57°F / 14°C 69% 29.89 in
(1012 mb)
WNW 20.7 mph
(WNW 33 kph)
- 10SM
17:54
Partly Cloudy
72°F / 22°C 59°F / 15°C 65% 29.89 in
(1012 mb)
Calm - 10SM
17:35
Partly Cloudy
73°F / 23°C 61°F / 16°C 65% 29.89 in
(1012 mb)
Calm - 10SM
17:14
Partly Cloudy
73°F / 23°C 61°F / 16°C 65% 29.86 in
(1011 mb)
Calm - 7SM
16:54
Partly Cloudy
Hazy
75°F / 24°C 63°F / 17°C 65% 29.86 in
(1011 mb)
Calm - 5SM
16:35
Mostly Cloudy
75°F / 24°C 64°F / 18°C 69% 29.86 in
(1011 mb)
Calm - 10SM
16:14
Mostly Cloudy
79°F / 26°C 64°F / 18°C 61% 29.83 in
(1010 mb)
Calm - 10SM
15:55
Mostly Cloudy
79°F / 26°C 66°F / 19°C 65% 29.83 in
(1010 mb)
Calm - 10SM
15:34
Mostly Cloudy
75°F / 24°C 68°F / 20°C 78% 29.83 in
(1010 mb)
SSW 8.1 mph
(SSW 13 kph)
- 10SM
15:14
Mostly Cloudy
75°F / 24°C 68°F / 20°C 78% 29.83 in
(1010 mb)
SW 11.5 mph
(SW 19 kph)
- 7SM
14:55
Overcast
73°F / 23°C 66°F / 19°C 78% 29.83 in
(1010 mb)
SW 8.1 mph
(SW 13 kph)
- 10SM
14:34
Mostly Cloudy
73°F / 23°C 66°F / 19°C 78% 29.83 in
(1010 mb)
SW 9.2 mph
(SW 15 kph)
- 7SM
14:15
Partly Cloudy
75°F / 24°C 66°F / 19°C 74% 29.8 in
(1009 mb)
SW 12.7 mph
(SW 20 kph)
- 7SM
13:54
Mostly Cloudy
73°F / 23°C 66°F / 19°C 78% 29.8 in
(1009 mb)
SW 15 mph
(SW 24 kph)
- 7SM
13:34
Mostly Cloudy
72°F / 22°C 64°F / 18°C 78% 29.8 in
(1009 mb)
SW 15 mph
(SW 24 kph)
- 7SM
13:15
Overcast
68°F / 20°C 64°F / 18°C 88% 29.8 in
(1009 mb)
SW 20.7 mph
(SW 33 kph)
- 7SM
12:54
Overcast
68°F / 20°C 63°F / 17°C 83% 29.8 in
(1009 mb)
SW 21.9 mph
(SW 35 kph)
- 7SM
12:35
Overcast
70°F / 21°C 64°F / 18°C 83% 29.8 in
(1009 mb)
SSE 23 mph
(SSE 37 kph)
- 10SM
12:14
Overcast
70°F / 21°C 64°F / 18°C 83% 29.77 in
(1008 mb)
SW 25.3 mph
(SW 41 kph)
- 10SM
11:54
Overcast
Light Rain
70°F / 21°C 64°F / 18°C 83% 29.8 in
(1009 mb)
SW 27.6 mph
(SW 44 kph)
- 7SM
11:35
Overcast
72°F / 22°C 64°F / 18°C 78% 29.77 in
(1008 mb)
SSE 26.5 mph
(SSE 43 kph)
- 7SM
11:14
Overcast
72°F / 22°C 64°F / 18°C 78% 29.77 in
(1008 mb)
S 20.7 mph
(S 33 kph)
- 7SM
10:55
Overcast
70°F / 21°C 64°F / 18°C 83% 29.77 in
(1008 mb)
S 23 mph
(S 37 kph)
- 10SM
10:35
Overcast
70°F / 21°C 64°F / 18°C 83% 29.8 in
(1009 mb)
S 20.7 mph
(S 33 kph)
- 7SM
10:14
Overcast
72°F / 22°C 66°F / 19°C 83% 29.8 in
(1009 mb)
S 17.3 mph
(S 28 kph)
- 7SM
09:55
Mostly Cloudy
72°F / 22°C 64°F / 18°C 78% 29.83 in
(1010 mb)
S 15 mph
(S 24 kph)
- 7SM
09:35
Mostly Cloudy
70°F / 21°C 64°F / 18°C 83% 29.83 in
(1010 mb)
S 15 mph
(S 24 kph)
- 10SM
09:14
Mostly Cloudy
70°F / 21°C 64°F / 18°C 83% 29.89 in
(1012 mb)
S 13.8 mph
(S 22 kph)
- 7SM
08:55
Clear
70°F / 21°C 64°F / 18°C 83% 29.89 in
(1012 mb)
S 10.4 mph
(S 17 kph)
- 10SM
08:34
Partly Cloudy
70°F / 21°C 64°F / 18°C 83% 29.92 in
(1013 mb)
SSE 10.4 mph
(SSE 17 kph)
- 7SM
08:14
Mostly Cloudy
70°F / 21°C 64°F / 18°C 83% 29.92 in
(1013 mb)
S 10.4 mph
(S 17 kph)
- 7SM
07:55
Partly Cloudy
70°F / 21°C 64°F / 18°C 83% 29.95 in
(1014 mb)
SSE 12.7 mph
(SSE 20 kph)
- 7SM
07:34
Mostly Cloudy
68°F / 20°C 64°F / 18°C 88% 29.95 in
(1014 mb)
S 11.5 mph
(S 19 kph)
- 7SM
07:14
Mostly Cloudy
68°F / 20°C 63°F / 17°C 83% 29.95 in
(1014 mb)
SSE 11.5 mph
(SSE 19 kph)
- 10SM
06:54
Clear
66°F / 19°C 63°F / 17°C 88% 29.95 in
(1014 mb)
S 11.5 mph
(S 19 kph)
- 10SM
06:34
Clear
66°F / 19°C 63°F / 17°C 88% 29.98 in
(1015 mb)
SSE 11.5 mph
(SSE 19 kph)
- 10SM
06:15
Clear
66°F / 19°C 61°F / 16°C 83% 29.95 in
(1014 mb)
S 11.5 mph
(S 19 kph)
- 10SM
05:54
Clear
64°F / 18°C 61°F / 16°C 88% 29.95 in
(1014 mb)
S 10.4 mph
(S 17 kph)
- 10SM
05:35
Clear
64°F / 18°C 61°F / 16°C 88% 29.98 in
(1015 mb)
S 11.5 mph
(S 19 kph)
- 10SM
05:15
Clear
64°F / 18°C 61°F / 16°C 88% 29.98 in
(1015 mb)
S 16.1 mph
(S 26 kph)
- 10SM
04:54
Clear
64°F / 18°C 61°F / 16°C 88% 29.98 in
(1015 mb)
SSE 12.7 mph
(SSE 20 kph)
- 10SM
04:35
Clear
63°F / 17°C 59°F / 15°C 88% 29.95 in
(1014 mb)
S 8.1 mph
(S 13 kph)
- 10SM
04:15
Clear
61°F / 16°C 59°F / 15°C 94% 29.95 in
(1014 mb)
S 5.8 mph
(S 9 kph)
- 10SM
03:54
Clear
61°F / 16°C 59°F / 15°C 94% 29.98 in
(1015 mb)
SSE 3.5 mph
(SSE 6 kph)
- 10SM
03:35
Clear
61°F / 16°C 59°F / 15°C 94% 29.98 in
(1015 mb)
SE 3.5 mph
(SE 6 kph)
- 7SM
03:14
Clear
63°F / 17°C 59°F / 15°C 88% 29.98 in
(1015 mb)
S 3.5 mph
(S 6 kph)
- 10SM
02:54
Clear
63°F / 17°C 59°F / 15°C 88% 29.98 in
(1015 mb)
S 4.6 mph
(S 7 kph)
- 7SM
02:35
Clear
64°F / 18°C 59°F / 15°C 83% 29.98 in
(1015 mb)
SSE 9.2 mph
(SSE 15 kph)
- 10SM
02:14
Clear
64°F / 18°C 57°F / 14°C 78% 30.01 in
(1016 mb)
S 5.8 mph
(S 9 kph)
- 10SM
01:54
Clear
64°F / 18°C 57°F / 14°C 78% 30.01 in
(1016 mb)
SSE 5.8 mph
(SSE 9 kph)
- 10SM
01:35
Clear
64°F / 18°C 57°F / 14°C 78% 30.01 in
(1016 mb)
SSE 6.9 mph
(SSE 11 kph)
- 10SM
01:14
Clear
64°F / 18°C 57°F / 14°C 78% 30.01 in
(1016 mb)
SSE 9.2 mph
(SSE 15 kph)
- 10SM
00:55
Clear
64°F / 18°C 57°F / 14°C 78% 30.01 in
(1016 mb)
SSE 10.4 mph
(SSE 17 kph)
- 10SM
00:35
Clear
66°F / 19°C 57°F / 14°C 73% 30.01 in
(1016 mb)
SSE 10.4 mph
(SSE 17 kph)
- 10SM
00:14
Clear
64°F / 18°C 57°F / 14°C 78% 30.01 in
(1016 mb)
SSE 9.2 mph
(SSE 15 kph)
- 10SM
Time Weather Temperature Dewpoint Humidity Pressure Winds Precip Visibility


Weather for websites

WeatherForYou.com, LLC is not responsible for any damages or problems caused by this service. Current weather conditions are obtained from the closest station including government and personal stations which may have varying degrees of accuracy. Weather forecasts are derived from the NOAA NDFD. Like all things, this site belongs to Jesus Christ... He just trusts me to maintain it. If you have any questions or comments email webmaster@weatherforyou.com

Copyright © 2014, WeatherForYou.com LLC. All rights reserved.